Regional Weather Roundup
Issued by NWS

Home | Current Version | Previous Version | Text Only | Print | Product List | Glossary On
Versions: 1 2 3 4 5 6 7 8 9 10 11 12 13 14 15 16 17 18 19 20 21 22 23 24 25 26 27
000
ASUS45 KTFX 190910
RWRMT
MONTANA REGIONAL WEATHER ROUNDUP
NATIONAL WEATHER SERVICE GREAT FALLS MT
200 AM MST THU JAN 19 2017

NOTE: "FAIR" INDICATES FEW OR NO CLOUDS BELOW 12000 FEET WITH NO
SIGNIFICANT WEATHER AND/OR OBSTRUCTIONS TO VISIBILITY.

MTZ001>007-043-191000-
WEST OF THE DIVIDE

CITY           SKY/WX    TMP DP  RH WIND       PRES   REMARKS
KALISPELL      CLOUDY    30  29  96 CALM      29.49S FOG
MISSOULA       CLOUDY    29  26  89 CALM      29.54S FOG
BUTTE          CLOUDY    23  16  74 CALM      29.58F
MULLAN PASS    SNOW      32  29  88 S7        29.46S VSB 1/2 WCI  26
ANACONDA         N/A     37  25  60 SE16G25   29.53F WCI  28
DEER LODGE       N/A     37  27  65 S7        29.55F
EUREKA           N/A     34  34 100 CALM      29.46F VSB 1
HAMILTON         N/A     41  27  56 SE12      29.53S
RONAN            N/A     30  28  92 CALM      29.57R
$$

MTZ008-052>055-191000-
SOUTHWEST MONTANA

CITY           SKY/WX    TMP DP  RH WIND       PRES   REMARKS
BOZEMAN        CLOUDY    26  19  74 SW3       29.58F
DILLON         CLOUDY    33  19  56 SW10      29.61S WCI  25
W YELLOWSTONE  CLOUDY    16  12  86 NE5       29.75S
ENNIS          CLOUDY    32  16  51 S29G44    29.66F WCI  18
TWIN BRIDGES     N/A     29  16  58 S15       29.65S WCI  18
$$

MTZ009-010-012-014-046-048-049-054-191000-
EAST SLOPES AND CENTRAL MONTANA

CITY           SKY/WX    TMP DP  RH WIND       PRES   REMARKS
CUT BANK       CLOUDY    37  31  78 S6        29.41S
GREAT FALLS    CLOUDY    41  25  53 S17       29.46F
MALMSTROM AFB  CLOUDY    41  27  57 SW15      29.46F
HELENA         CLOUDY    27  20  75 W7        29.53F WCI  19
AUGUSTA          N/A     33  26  73 SE6       29.43F WCI  28
BOWMANS CRNR     N/A     33  24  67 S13       29.44F WCI  24
CHOTEAU          N/A     37  27  65 S7        29.45F
POWER          MOCLDY    35  27  73 S9        29.44S WCI  27
RAYNESFORD     MOCLDY    44  24  46 S13       29.47F
ULM            MOCLDY    40  27  58 MISG      29.46F
$$

MTZ011-013-016-021-045-047-050-051-191000-
NORTH CENTRAL MONTANA

CITY           SKY/WX    TMP DP  RH WIND       PRES   REMARKS
HAVRE          CLOUDY    37  30  75 CALM      29.44F
LEWISTOWN      CLOUDY    36  28  73 CALM      29.50R
CHINOOK          N/A     34  28  80 E5        29.45F
DENTON         MOCLDY    38  29  69 SE15      29.43F WCI  30
FORT BENTON      N/A     43  27  52 MISG      29.46S
GEYSER         MOCLDY    47  26  44 W17G24    29.46F
GRASS RANGE      N/A     35  27  74 W6        29.45S WCI  30
JUDITH GAP       N/A     37  24  60 S14       29.51S WCI  28
ROY              N/A     40  28  61 MISG      29.47S
STANFORD       MOCLDY    41  28  58 S9        29.48R
WINIFRED       MOCLDY    43  29  57 S7        29.47R
$$

MTZ017>020-022>027-061-062-191000-
NORTHEAST MONTANA

CITY           SKY/WX    TMP DP  RH WIND       PRES   REMARKS
GLASGOW        CLOUDY    25  20  81 SE7       29.48S WCI  17
JORDAN           N/A     20  18  92 CALM      29.49S
SIDNEY         CLOUDY    20  17  88 S6        29.53R WCI  12
WOLF POINT     CLOUDY    15  10  80 CALM      29.52S
PLENTYWOOD       N/A     27  23  86 E8        29.49S WCI  18
POPLAR           N/A     27  21  80 CALM      29.52S
$$

MTZ028>42-056>058-191000-
SOUTHCENTRAL AND SOUTHEAST MONTANA

CITY           SKY/WX    TMP DP  RH WIND       PRES   REMARKS
BAKER          CLOUDY    16  11  80 SE6       29.54F WCI   7
BILLINGS       CLOUDY    36  19  50 SW22      29.53F WCI  25
LIVINGSTON     MOCLDY    43  13  29 SW25G36   29.57F
MILES CITY     CLOUDY    26  18  71 SE9       29.54S WCI  17
BIG TIMBER     PTCLDY    41  18  38 W23G29    29.56F
FORSYTH          N/A     25  19  80 CALM      29.53S
HARLOWTON        N/A     33  22  65 CALM      29.52S
LAUREL           N/A     33  18  54 S10       29.56F WCI  25
ROUNDUP          N/A     38  20  48 S7        29.48S
$$

REGIONAL REPORTS...DAKOTAS

CITY           SKY/WX    TMP DP  RH WIND       PRES   REMARKS
WILLISTON      CLOUDY    22  20  92 S3        29.53R
MINOT          CLOUDY    32  25  75 S8        29.50F WCI  25
DICKINSON      CLOUDY    23  17  78 W3        29.51S
BEACH            N/A     23  18  80 S7        29.55S WCI  15
CROSBY           N/A     27  25  93 S17       29.50R WCI  14
TIOGA            N/A     25  25 100 CALM      29.52S
WATFORD CITY     N/A     18  16  93 CALM      29.53R
BISMARCK       CLOUDY    14   8  77 E3        29.57F
GRAND FORKS    CLOUDY    27  19  72 S14       29.60S WCI  16
FARGO          CLOUDY    28  25  88 S13       29.65R WCI  17
BUFFALO SD       N/A     29  19  66 W3        29.48S
RAPID CITY     CLOUDY    28  20  71 NW8       29.55F WCI  20
$$

REGIONAL REPORTS...WYOMING/IDAHO/WASHINGTON

CITY           SKY/WX    TMP DP  RH WIND       PRES   REMARKS
GILLETTE       CLOUDY    33  19  56 SW16      29.58S WCI  23
SHERIDAN       CLOUDY    17  13  84 S5        29.55F
BUFFALO WY     CLOUDY    41  16  36 SW9       29.57F
CODY           CLOUDY    18  12  77 E3        29.61S
YELLOWSTONE LA   N/A     13  11  92 CALM      29.76R
IDAHO FALLS    SNOW      20  19  96 N7        29.80F VSB 1/2 WCI  11
SALMON         CLOUDY    18  12  79 SW3       29.68F
BOISE          CLOUDY    37  33  85 SE9       29.65R WCI  30
SPOKANE        LGT RAIN  36  34  92 S15       29.48R FOG     WCI  27
$$

REGIONAL REPORTS...ALBERTA

CITY           SKY/WX    TMP DP  RH WIND       PRES   REMARKS
EDMONTON       CLEAR     34  21  60 SW5       29.20R
CALGARY        MOCLDY    34  27  75 E3        29.28R
LETHBRIDGE     MOCLDY    36  32  87 SE9       29.36R WCI  29
MEDICINE HAT   CLEAR     37  32  81 S9        29.36F WCI  31
WATERTON GATE    N/A     39  36  87 SW5         N/A
MILK RIVER       N/A     37  34  87 S10         N/A  WCI  30
$$

REGIONAL REPORTS...SASKATCHEWAN

CITY           SKY/WX    TMP DP  RH WIND       PRES   REMARKS
SWIFT CURRENT  MOCLDY    41  32  70 W15G21    29.37R
REGINA         CLEAR     30  27  86 SW8       29.41S WCI  23
SASKATOON      MOCLDY    34  30  86 SW10      29.32R WCI  26
CYPRESS HILLS    N/A     37  30  75 S8          N/A  WCI  31
ROCKGLEN         N/A     36  28  75 SW10        N/A  WCI  28
ASSINIBOIA       N/A     27  23  86 S9          N/A  WCI  17
$$




USA.gov is the U.S. government's official web portal to all federal, state and local government web resources and services.